AD8BW Weather Reports


time (UTC)temp
C
wind
direction
speed
KPH
gust
KPH
rain 1hr
cm
rain 24hr
cm
rain mn
cm
humidity
%
barometer
mb
20260509001859 15 172 0.0 3.2 0.00 0.00 0.00 38 1005.7
20260509000900 16 172 0.0 6.4 0.00 0.00 0.00 36 1005.7
20260508235859 16 183 0.0 6.4 0.00 0.00 0.00 36 1005.7
20260508234858 16 175 0.0 6.4 0.00 0.00 0.00 36 1005.7
20260508233901 16 199 0.0 3.2 0.00 0.00 0.00 36 1005.7
20260508232858 16 199 0.0 6.4 0.00 0.00 0.00 36 1005.7
20260508231902 16 169 0.0 11.3 0.00 0.00 0.00 36 1005.7
20260508230859 16 158 0.0 11.3 0.00 0.00 0.00 36 1005.7
20260508225900 17 342 3.2 8.0 0.00 0.00 0.00 34 1005.7
20260508224858 16 148 3.2 22.5 0.00 0.00 0.00 36 1005.8
20260508223909 16 175 0.0 3.2 0.00 0.00 0.00 37 1005.9
20260508222905 16 289 0.0 3.2 0.00 0.00 0.00 35 1006.0
20260508221855 16 257 3.2 14.5 0.00 0.00 0.00 35 1006.0
20260508220853 17 269 3.2 11.3 0.00 0.00 0.00 34 1006.0
20260508215855 17 155 3.2 17.7 0.00 0.00 0.00 33 1006.0
20260508214852 17 160 3.2 14.5 0.00 0.00 0.00 34 1006.1
20260508213853 17 179 6.4 14.5 0.00 0.00 0.00 32 1006.1
20260508212852 17 269 3.2 14.5 0.00 0.00 0.00 32 1006.2
20260508211852 17 285 6.4 11.3 0.00 0.00 0.00 32 1006.3
20260508210853 17 199 3.2 11.3 0.00 0.00 0.00 34 1006.3
20260508205847 17 293 3.2 11.3 0.00 0.00 0.00 32 1006.3
20260508204848 17 209 6.4 17.7 0.00 0.00 0.00 32 1006.5
20260508203848 17 275 8.0 29.0 0.00 0.00 0.00 34 1006.7
20260508202846 16 124 3.2 17.7 0.00 0.00 0.00 35 1006.8
20260508201847 16 292 3.2 14.5 0.00 0.00 0.00 34 1006.9
20260508200846 16 309 3.2 17.7 0.00 0.00 0.00 34 1007.2
20260508195847 16 180 3.2 11.3 0.00 0.00 0.00 35 1007.3
20260508194846 15 153 3.2 11.3 0.00 0.00 0.00 36 1007.5
20260508193847 16 335 6.4 17.7 0.00 0.00 0.00 34 1007.6
20260508192845 16 242 6.4 29.0 0.00 0.00 0.00 32 1007.7
20260508191846 15 245 3.2 14.5 0.00 0.00 0.00 33 1007.8
20260508190845 15 219 3.2 22.5 0.00 0.00 0.00 34 1007.8
20260508185846 15 283 3.2 14.5 0.00 0.00 0.00 33 1008.0
20260508184846 16 17 6.4 14.5 0.00 0.00 0.00 32 1008.2
20260508183849 15 168 8.0 19.3 0.00 0.00 0.00 31 1008.4
20260508182848 15 223 3.2 14.5 0.00 0.00 0.00 32 1008.3
20260508181850 15 147 3.2 11.3 0.00 0.00 0.00 35 1008.4
20260508180848 15 332 6.4 17.7 0.00 0.00 0.00 34 1008.6
20260508175841 15 229 3.2 11.3 0.00 0.00 0.00 33 1008.8
20260508174842 15 157 6.4 14.5 0.00 0.00 0.00 34 1009.0
20260508173840 15 192 6.4 11.3 0.00 0.00 0.00 35 1009.2
20260508172841 15 248 6.4 17.7 0.00 0.00 0.00 33 1009.2
20260508171842 15 185 3.2 11.3 0.00 0.00 0.00 35 1009.5
20260508170843 14 148 6.4 17.7 0.00 0.00 0.00 35 1009.5
20260508165845 14 155 6.4 17.7 0.00 0.00 0.00 36 1009.7
20260508164836 13 283 6.4 19.3 0.00 0.00 0.00 34 1009.8
20260508163839 13 238 6.4 11.3 0.00 0.00 0.00 37 1009.9
20260508162838 13 350 3.2 14.5 0.00 0.00 0.00 34 1010.1
20260508161835 13 317 3.2 8.0 0.00 0.00 0.00 35 1010.1
20260508160838 13 283 6.4 17.7 0.00 0.00 0.00 35 1010.2
20260508155837 13 169 3.2 17.7 0.00 0.00 0.00 35 1010.3
20260508154835 12 154 3.2 25.7 0.00 0.00 0.00 36 1010.3
20260508153836 12 264 3.2 17.7 0.00 0.00 0.00 39 1010.3
20260508152842 12 156 3.2 11.3 0.00 0.00 0.00 39 1010.3
20260508151833 12 271 3.2 14.5 0.00 0.00 0.00 41 1010.4
20260508150831 12 237 3.2 11.3 0.00 0.00 0.00 40 1010.6
20260508145831 11 170 3.2 11.3 0.00 0.00 0.00 43 1010.5
20260508144830 11 189 3.2 8.0 0.00 0.00 0.00 44 1010.5
20260508143829 11 238 3.2 6.4 0.00 0.00 0.00 46 1010.7
20260508142830 11 240 0.0 11.3 0.00 0.00 0.00 48 1010.7
20260508141830 10 325 3.2 8.0 0.00 0.00 0.00 49 1010.7
20260508140828 10 308 3.2 17.7 0.00 0.00 0.00 53 1010.9
20260508135832 10 170 0.0 6.4 0.00 0.00 0.00 54 1011.0
20260508134828 10 327 0.0 6.4 0.00 0.00 0.00 54 1011.0
20260508133828 10 281 0.0 6.4 0.00 0.00 0.00 57 1011.1
20260508132827 9 335 0.0 8.0 0.00 0.00 0.00 58 1011.0
20260508131825 9 225 0.0 6.4 0.00 0.00 0.00 64 1011.0
20260508130826 8 211 0.0 8.0 0.00 0.00 0.00 66 1011.1
20260508125826 8 305 0.0 6.4 0.00 0.00 0.00 67 1011.0
20260508124829 8 196 0.0 6.4 0.00 0.00 0.00 69 1011.1
20260508123826 7 192 3.2 8.0 0.00 0.00 0.00 76 1011.0
20260508122827 7 164 0.0 8.0 0.00 0.00 0.00 78 1010.8
20260508121828 6 349 0.0 3.2 0.00 0.00 0.00 81 1010.8
20260508120824 6 349 0.0 0.0 0.00 0.00 0.00 87 1010.6
20260508115826 5 349 0.0 0.0 0.00 0.00 0.00 89 1010.5
20260508114827 3 349 0.0 0.0 0.00 0.00 0.00 90 1010.5
20260508113830 2 349 0.0 0.0 0.00 0.00 0.00 88 1010.4
20260508112823 2 349 0.0 0.0 0.00 0.00 0.00 87 1010.3
20260508111824 2 349 0.0 0.0 0.00 0.00 0.00 86 1010.3
20260508110824 2 349 0.0 0.0 0.00 0.00 0.00 86 1010.3
20260508105824 2 349 0.0 0.0 0.00 0.00 0.00 85 1010.2
20260508104826 2 349 0.0 0.0 0.00 0.00 0.00 85 1010.2
20260508103821 2 349 0.0 0.0 0.00 0.00 0.00 85 1010.1
20260508102818 2 349 0.0 0.0 0.00 0.00 0.00 84 1010.2
20260508101820 2 349 0.0 0.0 0.00 0.00 0.00 84 1010.2
20260508100820 3 349 0.0 0.0 0.00 0.00 0.00 84 1010.3
20260508095818 3 349 0.0 0.0 0.00 0.00 0.00 84 1010.3
20260508094817 3 349 0.0 0.0 0.00 0.00 0.00 83 1010.3
20260508093818 3 349 0.0 0.0 0.00 0.00 0.00 83 1010.3
20260508092814 3 349 0.0 0.0 0.00 0.00 0.00 83 1010.4
20260508091813 3 349 0.0 0.0 0.00 0.00 0.00 83 1010.4
20260508090818 4 349 0.0 0.0 0.00 0.00 0.00 82 1010.4
20260508085816 4 349 0.0 0.0 0.00 0.00 0.00 82 1010.5
20260508084815 4 349 0.0 0.0 0.00 0.00 0.00 81 1010.5
20260508083814 4 349 0.0 0.0 0.00 0.00 0.00 81 1010.5
20260508082816 5 349 0.0 0.0 0.00 0.00 0.00 81 1010.4
20260508081828 5 349 0.0 0.0 0.00 0.00 0.00 81 1010.4
20260508080826 5 349 0.0 0.0 0.00 0.00 0.00 80 1010.4
20260508075807 5 349 0.0 3.2 0.00 0.00 0.00 80 1010.4
20260508074808 5 349 0.0 3.2 0.00 0.00 0.00 80 1010.5
20260508073808 5 349 0.0 3.2 0.00 0.00 0.00 79 1010.3
20260508072811 5 349 0.0 0.0 0.00 0.00 0.00 79 1010.2
20260508071809 5 349 0.0 0.0 0.00 0.00 0.00 78 1010.2
20260508070808 5 349 0.0 6.4 0.00 0.00 0.00 78 1010.3
20260508065808 5 349 0.0 3.2 0.00 0.00 0.00 78 1010.4
20260508064809 6 349 0.0 6.4 0.00 0.00 0.00 78 1010.4
20260508063804 6 329 0.0 6.4 0.00 0.00 0.00 77 1010.8
20260508062804 6 329 0.0 0.0 0.00 0.00 0.00 75 1010.6
20260508061801 6 329 0.0 0.0 0.00 0.00 0.00 74 1010.8
20260508060803 6 329 0.0 3.2 0.00 0.00 0.00 74 1010.9
20260508055804 6 329 3.2 11.3 0.00 0.00 0.00 73 1011.0
20260508054804 6 152 6.4 11.3 0.00 0.00 0.00 68 1010.3
20260508053804 6 307 0.0 6.4 0.00 0.00 0.00 67 1011.1
20260508052802 6 304 0.0 0.0 0.00 0.00 0.00 67 1010.8
20260508051805 6 304 0.0 3.2 0.00 0.00 0.00 67 1010.8
20260508050759 6 304 0.0 6.4 0.00 0.00 0.00 69 1011.2
20260508045804 6 300 0.0 3.2 0.00 0.00 0.00 69 1011.0
20260508044801 6 296 0.0 0.0 0.00 0.00 0.00 73 1010.9
20260508043801 6 296 0.0 6.4 0.00 0.00 0.00 74 1011.1
20260508042802 6 313 0.0 6.4 0.00 0.00 0.00 76 1011.2
20260508041757 6 328 0.0 0.0 0.00 0.00 0.00 76 1011.0
20260508040800 6 328 0.0 0.0 0.00 0.00 0.00 75 1010.7
20260508035800 6 328 0.0 0.0 0.00 0.00 0.00 74 1010.7
20260508034756 6 328 0.0 0.0 0.00 0.00 0.00 72 1010.7
20260508033754 6 328 0.0 0.0 0.00 0.00 0.00 71 1010.7
20260508032756 6 328 0.0 0.0 0.00 0.00 0.00 69 1010.4
20260508031757 6 328 0.0 0.0 0.00 0.00 0.00 66 1010.6
20260508030757 6 328 0.0 0.0 0.00 0.00 0.00 67 1010.7
20260508025758 6 328 0.0 0.0 0.00 0.00 0.00 67 1011.0
20260508024803 6 328 0.0 0.0 0.00 0.00 0.00 67 1011.0
20260508023803 7 328 0.0 0.0 0.00 0.00 0.00 65 1011.0
20260508022749 7 328 0.0 0.0 0.00 0.00 0.00 64 1010.8
20260508021748 7 328 0.0 3.2 0.00 0.00 0.00 62 1010.9
20260508020752 7 328 0.0 0.0 0.00 0.00 0.00 62 1010.8
20260508015750 7 328 0.0 0.0 0.00 0.00 0.00 60 1010.7
20260508014750 8 328 0.0 6.4 0.00 0.00 0.00 57 1010.8
20260508013753 8 313 0.0 8.0 0.00 0.00 0.00 56 1010.7
20260508012748 8 284 0.0 6.4 0.00 0.00 0.00 54 1010.6
20260508011751 9 296 3.2 6.4 0.00 0.00 0.00 52 1010.4
20260508010746 9 308 3.2 8.0 0.00 0.00 0.00 50 1010.3
20260508005744 9 276 3.2 8.0 0.00 0.00 0.00 50 1010.3
20260508004746 10 251 0.0 8.0 0.00 0.00 0.00 49 1010.0
20260508003744 10 290 3.2 8.0 0.00 0.00 0.00 48 1010.0